Tiempo cada hora Gogolewo

Hoy, 29 Noviembre, Domingo

Tiempo Temperatura Precipitaciones Viento Presión Humedad
00:00 0°C° 0 mm 4 mps 756 mmHg 85%
01:00 0°C° 0 mm 4 mps 756 mmHg 93%
02:00 0°C° 0.3 mm 4 mps 756 mmHg 94%
03:00 0°C° 0.3 mm 4 mps 756 mmHg 94%
04:00 +1°C° 0.3 mm 3 mps 756 mmHg 95%
05:00 +1°C° 0.2 mm 3 mps 756 mmHg 95%
06:00 +1°C° 0.2 mm 3 mps 756 mmHg 95%
07:00 +1°C° 0 mm 3 mps 756 mmHg 96%
08:00 +1°C° 0.4 mm 3 mps 756 mmHg 95%
09:00 +1°C° 0.4 mm 3 mps 756 mmHg 94%
10:00 +1°C° 0.4 mm 3 mps 756 mmHg 94%
11:00 +1°C° 0.1 mm 3 mps 756 mmHg 88%
12:00 +1°C° 0.1 mm 3 mps 756 mmHg 83%
13:00 +1°C° 0.1 mm 3 mps 756 mmHg 78%
14:00 +2°C° 0 mm 2 mps 756 mmHg 80%
15:00 +1°C° 0 mm 2 mps 756 mmHg 81%
16:00 +1°C° 0 mm 2 mps 756 mmHg 83%
17:00 +1°C° 0 mm 2 mps 756 mmHg 85%
18:00 -1°C° 0 mm 2 mps 756 mmHg 86%
19:00 -1°C° 0 mm 2 mps 757 mmHg 88%
20:00 +1°C° 0 mm 1 mps 757 mmHg 86%
21:00 +1°C° 0 mm 1 mps 757 mmHg 83%
22:00 +1°C° 0 mm 1 mps 757 mmHg 81%
23:00 0°C° 0 mm 1 mps 757 mmHg 82%

Mañana, 30 Noviembre, Lunes

Tiempo Temperatura Precipitaciones Viento Presión Humedad
00:00 0°C° 0 mm 1 mps 757 mmHg 83%
01:00 0°C° 0 mm 1 mps 757 mmHg 83%
02:00 0°C° 0 mm 1 mps 757 mmHg 85%
03:00 0°C° 0 mm 1 mps 757 mmHg 87%
04:00 0°C° 0 mm 1 mps 757 mmHg 89%
05:00 +1°C° 0 mm 1 mps 757 mmHg 90%
06:00 +1°C° 0 mm 1 mps 758 mmHg 91%
07:00 +1°C° 0 mm 1 mps 758 mmHg 92%
08:00 +2°C° 0.1 mm 1 mps 758 mmHg 92%
09:00 +1°C° 0.1 mm 2 mps 758 mmHg 93%
10:00 +1°C° 0.1 mm 2 mps 758 mmHg 93%
11:00 +1°C° 0 mm 2 mps 758 mmHg 92%
12:00 +1°C° 0 mm 3 mps 758 mmHg 91%
13:00 +1°C° 0 mm 3 mps 758 mmHg 91%
14:00 0°C° 0 mm 3 mps 758 mmHg 90%
15:00 +1°C° 0 mm 2 mps 757 mmHg 88%
16:00 +1°C° 0 mm 2 mps 757 mmHg 87%
17:00 +1°C° 0 mm 2 mps 757 mmHg 86%
18:00 +1°C° 0 mm 2 mps 757 mmHg 85%
19:00 +1°C° 0 mm 2 mps 757 mmHg 84%
20:00 +1°C° 0 mm 2 mps 757 mmHg 84%
21:00 +1°C° 0 mm 2 mps 757 mmHg 83%
22:00 0°C° 0 mm 3 mps 757 mmHg 83%
23:00 -1°C° 0 mm 3 mps 756 mmHg 85%

Pasado mañana, 1 Diciembre, Martes

Tiempo Temperatura Precipitaciones Viento Presión Humedad
00:00 -1°C° 0 mm 3 mps 756 mmHg 86%
01:00 -2°C° 0 mm 3 mps 755 mmHg 88%
02:00 -2°C° 0 mm 3 mps 755 mmHg 87%
03:00 -2°C° 0 mm 3 mps 755 mmHg 86%
04:00 -3°C° 0 mm 4 mps 754 mmHg 85%
05:00 -3°C° 0 mm 4 mps 754 mmHg 84%
06:00 -3°C° 0 mm 4 mps 754 mmHg 83%
07:00 -3°C° 0 mm 4 mps 754 mmHg 82%
08:00 -2°C° 0 mm 4 mps 754 mmHg 79%
09:00 -2°C° 0 mm 4 mps 754 mmHg 76%
10:00 -1°C° 0 mm 4 mps 754 mmHg 73%
11:00 -1°C° 0 mm 4 mps 754 mmHg 70%
12:00 0°C° 0 mm 4 mps 754 mmHg 68%
13:00 +1°C° 0 mm 4 mps 755 mmHg 66%
14:00 +1°C° 0 mm 3 mps 755 mmHg 70%
15:00 0°C° 0 mm 3 mps 755 mmHg 75%
16:00 -1°C° 0 mm 3 mps 754 mmHg 79%
17:00 -1°C° 0 mm 3 mps 755 mmHg 80%
18:00 -2°C° 0 mm 3 mps 755 mmHg 81%
19:00 -2°C° 0 mm 3 mps 756 mmHg 83%
20:00 -2°C° 0 mm 2 mps 756 mmHg 83%
21:00 -2°C° 0 mm 2 mps 756 mmHg 84%
22:00 -3°C° 0 mm 2 mps 756 mmHg 85%
23:00 -3°C° 0 mm 2 mps 756 mmHg 85%

2 Diciembre, Miércoles

Tiempo Temperatura Precipitaciones Viento Presión Humedad
00:00 -3°C° 0 mm 2 mps 756 mmHg 85%
01:00 -3°C° 0 mm 2 mps 756 mmHg 84%
02:00 -3°C° 0 mm 2 mps 756 mmHg 84%
03:00 -3°C° 0 mm 2 mps 756 mmHg 84%
04:00 -3°C° 0 mm 2 mps 756 mmHg 84%
05:00 -3°C° 0 mm 2 mps 756 mmHg 84%
06:00 -3°C° 0 mm 2 mps 756 mmHg 83%
07:00 -3°C° 0 mm 2 mps 756 mmHg 83%
08:00 -3°C° 0 mm 2 mps 756 mmHg 79%
09:00 -2°C° 0 mm 2 mps 756 mmHg 75%
10:00 -1°C° 0 mm 3 mps 756 mmHg 71%
11:00 -1°C° 0 mm 2 mps 755 mmHg 68%
12:00 +1°C° 0 mm 2 mps 755 mmHg 66%
13:00 +1°C° 0 mm 2 mps 755 mmHg 63%
14:00 -1°C° 0 mm 2 mps 754 mmHg 67%
15:00 -2°C° 0 mm 2 mps 754 mmHg 71%
16:00 -2°C° 0 mm 3 mps 754 mmHg 76%
17:00 -4°C° 0 mm 3 mps 753 mmHg 77%
18:00 -4°C° 0 mm 3 mps 753 mmHg 78%
19:00 -4°C° 0 mm 3 mps 753 mmHg 79%
20:00 -4°C° 0 mm 3 mps 753 mmHg 79%
21:00 -4°C° 0 mm 3 mps 753 mmHg 80%
22:00 -4°C° 0 mm 3 mps 753 mmHg 80%
23:00 -4°C° 0 mm 3 mps 752 mmHg 79%

3 Diciembre, Jueves

Tiempo Temperatura Precipitaciones Viento Presión Humedad
00:00 -3°C° 0 mm 2 mps 752 mmHg 78%
01:00 -3°C° 0 mm 2 mps 752 mmHg 77%
02:00 -3°C° 0 mm 2 mps 752 mmHg 76%
03:00 -3°C° 0 mm 2 mps 751 mmHg 74%
04:00 -3°C° 0 mm 2 mps 751 mmHg 73%
05:00 -3°C° 0 mm 2 mps 751 mmHg 72%
06:00 -3°C° 0 mm 2 mps 750 mmHg 71%
07:00 -3°C° 0 mm 2 mps 750 mmHg 70%
08:00 -2°C° 0 mm 3 mps 750 mmHg 66%
09:00 -2°C° 0 mm 3 mps 750 mmHg 61%
10:00 -1°C° 0 mm 3 mps 750 mmHg 57%
11:00 0°C° 0 mm 3 mps 749 mmHg 56%
12:00 0°C° 0 mm 3 mps 749 mmHg 55%
13:00 +1°C° 0 mm 3 mps 748 mmHg 53%
14:00 0°C° 0 mm 3 mps 748 mmHg 57%
15:00 0°C° 0 mm 3 mps 748 mmHg 61%
16:00 -1°C° 0 mm 3 mps 747 mmHg 64%
17:00 -1°C° 0.5 mm 3 mps 747 mmHg 73%
18:00 -1°C° 0.5 mm 3 mps 747 mmHg 81%
19:00 -3°C° 0.5 mm 4 mps 747 mmHg 90%
20:00 -2°C° 0.6 mm 4 mps 747 mmHg 84%
21:00 -2°C° 0.6 mm 4 mps 746 mmHg 79%
22:00 -2°C° 0.6 mm 4 mps 746 mmHg 73%
23:00 -2°C° 0 mm 4 mps 745 mmHg 72%

4 Diciembre, Viernes

Tiempo Temperatura Precipitaciones Viento Presión Humedad
00:00 -2°C° 0 mm 4 mps 745 mmHg 71%
01:00 -2°C° 0 mm 4 mps 745 mmHg 71%
02:00 -2°C° 0 mm 4 mps 744 mmHg 72%
03:00 -2°C° 0 mm 4 mps 744 mmHg 74%
04:00 -2°C° 0 mm 4 mps 743 mmHg 76%
05:00 -2°C° 0 mm 4 mps 743 mmHg 77%
06:00 -2°C° 0 mm 4 mps 743 mmHg 78%
07:00 -2°C° 0 mm 4 mps 743 mmHg 79%
08:00 -1°C° 0 mm 5 mps 743 mmHg 77%
09:00 0°C° 0 mm 5 mps 743 mmHg 76%
10:00 +2°C° 0 mm 6 mps 743 mmHg 75%
11:00 +2°C° 0 mm 6 mps 743 mmHg 73%
12:00 +3°C° 0 mm 6 mps 743 mmHg 72%
13:00 +4°C° 0 mm 6 mps 742 mmHg 70%
14:00 +3°C° 0 mm 6 mps 742 mmHg 72%
15:00 +2°C° 0 mm 6 mps 742 mmHg 74%
16:00 +1°C° 0 mm 6 mps 742 mmHg 75%
17:00 +1°C° 0 mm 6 mps 742 mmHg 77%
18:00 +1°C° 0 mm 6 mps 742 mmHg 78%
19:00 +1°C° 0 mm 5 mps 742 mmHg 79%
20:00 +1°C° 0 mm 5 mps 742 mmHg 79%
21:00 +1°C° 0 mm 5 mps 742 mmHg 79%
22:00 +1°C° 0 mm 5 mps 742 mmHg 79%
23:00 +1°C° 0 mm 6 mps 742 mmHg 80%
Mostrar más

Necesitamos Su Consentimiento

Meteoprog y nuestros Proveedores de Servicios pueden almacenar y acceder a sus datos personales como cookies, identificadores de dispositivo u otras tecnologías similares de su dispositivo y procesar dichos datos para personalizar contenido y anuncios, además de ofrecer funciones de redes sociales y analizar el tráfico.

  • Almacenar y/o acceder a información en su dispositivo

    Se puede almacenar o acceder a cookies, identificadores de dispositivo u otra información de su dispositivo para los fines anteriormente indicados.

  • Anuncios y contenido personalizados, medición de anuncios y contenido, percepciones del público, y desarrollo de productos

    Los anuncios y el contenido pueden personalizarse en base a su perfil. Se pueden añadir más datos para personalizar mejor los anuncios y contenidos. Se puede medir el rendimiento de los anuncios y contenidos. Se puede obtener la percepción sobre el público que ha visto los anuncios y contenidos. Dichos datos pueden usarse para desarrollar o mejorar la experiencia del usuario, sistemas y software.

Al hacer clic en ‘Estoy De Acuerdo’ usted permitirá el uso de las cookies, identificadores de dispositivo, balizas web u otras tecnologías similares indicadas. Su configuración puede cambiarse desde el navegador de su dispositivo.

Para ciertos fines, los intereses legítimos pueden ser considerados por encima del consentimiento. Puede leer más sobre ello en nuestra Política de Privacidad y Cookies.